This is the latest recevied weather packets stored in our database for station/object W4OA. If no packets are shown the sender has not sent any weather packets the latest 10 day(s).
| Time | Temp. | Humidity | Pressure | Rain* | Wind** | Luminosity | Snow |
|---|---|---|---|---|---|---|---|
| 1778010599 | 26.11° C | 46% | 1008 hPa | 0 mm | - | 0 W/m² | - |
| 1778010298 | 26.11° C | 46% | 1008 hPa | 0 mm | - | 0 W/m² | - |
| 1778009999 | 26.11° C | 46% | 1008 hPa | 0 mm | - | 0 W/m² | - |
| 1778009699 | 26.11° C | 47% | 1008 hPa | 0 mm | - | 0 W/m² | - |
| 1778009398 | 26.11° C | 47% | 1008 hPa | 0 mm | - | 0 W/m² | - |
| 1778009099 | 26.11° C | 47% | 1008 hPa | 0 mm | - | 0 W/m² | - |
| 1778008799 | 25.56° C | 47% | 1008 hPa | 0 mm | - | 0 W/m² | - |
| 1778008499 | 25.56° C | 49% | 1008 hPa | 0 mm | - | 0 W/m² | - |
| 1778008198 | 24.44° C | 51% | 1008 hPa | 0 mm | - | 0 W/m² | - |
| 1778007899 | 24.44° C | 51% | 1008 hPa | 0 mm | - | 0 W/m² | - |
| 1778007599 | 24.44° C | 50% | 1008 hPa | 0 mm | - | 0 W/m² | - |
| 1778007299 | 24.44° C | 48% | 1008 hPa | 0 mm | - | 0 W/m² | - |
| 1778006999 | 24.44° C | 51% | 1008 hPa | 0 mm | - | 0 W/m² | - |
| 1778006698 | 25° C | 52% | 1009 hPa | 0 mm | - | 0 W/m² | - |
| 1778006398 | 25° C | 49% | 1008 hPa | 0 mm | - | 0 W/m² | - |
| 1778006100 | 25.56° C | 47% | 1009 hPa | 0 mm | - | 0 W/m² | - |
| 1778005799 | 25° C | 51% | 1009 hPa | 0 mm | - | 0 W/m² | - |
| 1778005500 | 25° C | 51% | 1009 hPa | 0 mm | - | 0 W/m² | - |
| 1778005199 | 24.44° C | 51% | 1009 hPa | 0 mm | - | 0 W/m² | - |
| 1778004900 | 25° C | 50% | 1009 hPa | 0 mm | - | 0 W/m² | - |
| 1778004600 | 25.56° C | 48% | 1009 hPa | 0 mm | - | 0 W/m² | - |
| 1778004298 | 23.89° C | 51% | 1009 hPa | 0 mm | - | 0 W/m² | - |
| 1778004000 | 23.89° C | 51% | 1009 hPa | 0 mm | - | 0 W/m² | - |
| 1778003698 | 23.89° C | 50% | 1009 hPa | 0 mm | - | 0 W/m² | - |
| 1778003399 | 23.89° C | 55% | 1009 hPa | 0 mm | - | 0 W/m² | - |
* Rain latest hour (hover to see other rain measurements)
** Current wind speed in m/s (hover to see current wind gust speed)